Theta_e
311 312 311 311 311 311 311 311 312 312 312 313 314 314 314 314 314 311 303 307 309 314 313 303 301 299 301 300 303 306 296 294 297 298 300 300 298 297 300 298 297 297 296 296 300
311 310 310 310 310 310 311 311 311 311 312 312 313 313 313 313 307 304 312 314 313 311 302 299 298 299 294 297 301 300 296 298 303 301 301 301 303 299 297 297 295 294 297 299 299
310 310 310 310 309 310 310 311 311 310 311 311 312 312 312 310 302 299 310 310 310 308 303 300 298 299 294 294 298 299 296 302 301 298 297 297 296 300 297 296 303 295 294 296 297
310 310 309 308 308 309 309 310 310 310 311 311 312 311 311 305 286 297 307 306 307 304 301 297 295 294 292 291 296 294 300 301 301 299 299 295 296 294 295 298 298 298 296 296 296
310 309 308 308 307 308 309 309 309 309 310 311 311 310 305 299 297 298 305 302 299 298 296 295 293 293 291 293 295 293 294 298 300 298 296 297 297 296 299 296 295 297 296 295 295
310 309 308 307 307 307 308 309 308 309 309 311 311 309 300 290 295 296 294 295 295 294 294 294 294 296 293 293 291 293 293 293 296 296 296 295 293 296 298 299 294 295 294 295 295
310 309 307 306 307 307 307 308 308 309 309 310 310 305 298 295 293 292 294 294 294 294 293 295 296 294 294 291 293 292 288 290 291 293 293 293 289 291 297 294 292 293 293 294 295
311 309 307 307 306 307 307 307 308 308 309 310 309 302 293 296 292 293 294 293 294 295 296 297 297 295 293 292 290 286 285 281 287 291 291 291 284 292 294 296 293 291 291 293 294
311 310 308 307 307 306 306 307 307 309 310 309 299 298 289 298 291 293 291 292 293 294 295 298 295 291 290 285 282 283 279 281 285 290 288 288 284 289 290 294 294 290 291 293 295
311 310 309 308 307 306 306 307 307 307 303 302 301 287 290 288 291 291 290 293 292 292 292 291 289 285 284 282 277 279 280 283 282 286 285 283 285 288 287 289 290 290 290 292 292
312 310 309 307 306 305 303 298 292 289 290 287 287 286 288 289 291 289 291 291 291 289 283 287 281 279 284 284 284 282 281 280 282 286 284 283 284 286 286 285 286 287 289 292 293
313 311 309 306 305 304 300 294 289 290 282 290 290 289 289 289 286 288 291 286 287 282 285 283 280 284 287 286 285 284 281 281 283 284 282 281 281 284 285 286 286 289 289 291 293
314 311 308 306 304 300 296 296 295 293 283 286 290 289 286 288 286 286 289 288 285 283 283 281 282 286 285 283 282 280 279 279 280 281 280 277 279 281 283 285 288 288 291 291 293
315 310 307 304 298 296 292 295 296 294 278 281 283 286 287 288 283 288 289 288 285 283 283 282 284 282 281 281 282 277 280 281 281 278 273 277 271 277 282 284 283 286 287 289 291
313 309 307 304 297 292 294 296 295 292 268 281 281 288 287 284 283 284 288 287 283 282 283 279 279 278 279 279 282 279 281 279 279 276 274 274 272 275 278 280 284 283 284 285 288
311 309 306 301 297 295 295 295 294 278 269 275 280 280 280 283 283 284 284 287 285 283 281 277 279 279 280 279 280 282 279 278 276 274 267 273 274 273 277 282 281 282 284 284 285
308 309 303 300 292 295 295 292 276 271 280 276 277 279 279 278 279 280 279 278 277 275 274 276 276 277 280 277 279 279 275 271 267 264 268 273 272 278 282 283 282 281 282 283 283
308 301 297 295 296 295 294 283 270 273 277 280 279 278 277 278 278 278 277 275 277 277 274 273 272 275 278 277 276 276 276 272 264 268 272 274 272 277 283 283 281 282 281 282 281
301 295 292 293 296 295 286 273 273 278 280 278 279 277 275 278 278 277 276 276 279 279 278 273 274 275 276 276 276 275 273 277 269 266 266 272 275 280 281 281 282 281 281 281 282
293 289 287 291 295 291 281 277 276 281 281 280 277 279 275 276 275 275 276 278 279 281 282 279 271 275 274 275 275 275 277 271 270 262 262 272 272 274 277 279 280 280 281 282 282
292 285 286 291 293 284 273 271 278 283 284 279 277 275 278 276 276 276 277 280 280 280 281 278 277 272 274 271 273 272 272 272 274 273 267 266 272 279 280 281 280 280 282 283 283
288 282 288 289 280 281 276 280 284 280 282 281 279 278 277 278 275 275 277 280 281 281 278 280 277 266 270 271 273 273 273 274 269 267 270 270 273 282 281 281 282 283 283 283 283
283 277 288 287 276 277 280 280 282 280 281 280 279 281 281 279 276 279 280 280 281 280 278 279 275 265 270 270 271 266 274 276 277 273 267 267 273 279 280 279 281 282 282 284 282
283 278 281 283 283 279 276 275 278 283 281 283 281 282 280 278 281 276 279 279 279 280 284 283 273 272 271 272 269 265 268 275 274 264 269 274 276 280 280 282 283 283 283 283 282
282 272 280 267 271 270 276 277 277 278 281 282 279 280 279 275 276 277 280 281 278 280 280 279 269 269 272 275 271 270 266 269 269 272 268 273 273 277 279 280 281 283 284 282 281
268 273 275 273 270 277 277 270 276 278 279 278 277 280 280 277 278 276 279 279 279 277 277 276 270 269 270 275 275 271 271 271 273 274 273 274 273 281 282 282 280 281 282 282 282
277 283 279 271 268 273 272 275 277 276 277 281 280 279 278 279 282 281 281 283 282 277 277 274 275 274 271 274 274 271 275 271 275 272 276 272 278 283 280 280 280 282 281 279 278
Wind_Speed
10 10 11 12 13 13 14 13 13 13 13 13 14 14 14 15 16 2 6 4 6 4 3 2 3 4 2 3 4 2 1 4 5 6 6 3 4 3 6 8 3 3 4 4 16
10 11 11 12 13 14 14 15 14 14 14 13 14 14 14 14 6 8 4 7 6 2 2 3 4 4 2 4 3 5 4 7 6 2 2 5 3 8 6 5 4 4 5 12 16
11 12 12 12 13 13 14 14 15 14 14 14 14 13 13 10 4 5 4 4 4 3 1 3 4 2 4 3 5 6 6 5 2 3 1 3 4 6 7 4 7 8 14 14 17
11 11 13 13 13 13 14 14 15 13 14 14 14 11 11 2 6 2 4 4 4 2 2 3 3 3 5 6 7 4 8 6 3 3 3 2 1 4 7 9 9 10 21 18 17
10 10 12 12 13 13 14 14 15 13 13 13 13 10 3 3 9 5 3 3 3 5 4 5 6 4 4 4 4 7 5 5 7 6 3 4 7 4 7 2 4 5 17 18 16
10 10 9 12 14 14 13 15 15 13 12 13 11 8 2 4 3 6 3 4 3 3 4 6 4 4 5 5 4 0 1 3 5 6 4 5 3 7 11 8 9 12 16 15 18
11 10 9 11 13 14 14 15 15 14 12 11 10 4 5 12 5 5 4 2 0 1 2 3 1 3 3 3 3 2 3 6 7 6 6 5 6 13 11 10 12 11 10 11 14
11 10 9 10 12 14 16 16 16 15 13 11 7 3 8 0 0 2 4 2 1 3 1 3 4 1 2 2 2 1 1 3 4 9 4 9 8 10 8 9 12 12 9 10 13
13 10 10 11 12 13 15 17 18 16 14 10 2 3 9 1 2 3 2 2 4 3 1 2 2 4 2 3 3 4 5 7 7 9 6 8 7 5 2 9 11 8 9 12 11
14 13 11 10 11 11 16 20 15 8 6 6 5 1 5 2 2 2 1 2 3 5 3 2 1 2 2 5 10 7 6 5 6 5 3 5 14 11 7 5 10 10 10 12 13
16 13 10 6 8 8 9 5 2 2 4 10 8 5 5 3 2 2 3 3 2 2 6 4 5 11 21 6 4 3 4 7 5 5 6 9 15 14 10 6 11 12 12 15 19
17 14 10 5 6 8 4 3 3 2 8 13 15 7 3 5 3 5 4 6 6 6 5 3 14 9 7 8 10 10 12 13 5 3 2 8 14 11 9 10 12 18 16 20 14
17 16 10 7 5 2 2 4 6 4 4 8 6 7 5 7 6 8 10 5 5 8 10 8 4 4 9 5 6 5 6 4 7 2 4 5 13 9 10 9 14 12 21 16 19
13 16 12 8 3 2 2 10 6 3 3 7 4 2 2 6 5 2 6 5 5 12 6 9 6 5 3 6 8 5 2 3 5 2 6 3 10 4 8 13 7 16 17 15 15
15 17 15 11 6 4 3 4 7 1 2 0 1 4 3 3 4 1 2 2 6 7 7 8 6 5 5 6 7 6 2 3 1 2 4 1 3 7 4 6 16 7 10 11 14
9 19 17 4 1 3 2 1 1 5 10 2 2 1 3 1 2 1 1 1 1 2 2 2 1 2 6 3 2 6 4 5 5 4 4 10 9 4 6 9 3 2 7 4 8
14 20 10 5 2 4 1 1 5 5 6 4 1 3 1 4 3 3 4 5 7 6 7 2 3 1 2 5 4 3 7 1 4 3 10 3 5 13 10 10 2 1 4 7 9
6 16 13 7 4 3 3 3 6 7 8 3 2 3 6 6 5 6 5 4 7 2 4 9 5 8 4 4 7 7 8 8 9 5 5 2 8 9 11 3 2 6 5 6 7
14 3 4 5 5 3 6 3 7 6 2 4 2 3 4 4 3 4 6 5 9 12 8 7 3 1 4 2 2 6 6 4 6 3 4 6 8 11 5 4 8 7 7 8 7
3 3 4 9 3 1 2 5 5 2 3 1 5 5 4 3 3 6 7 6 5 11 3 4 2 2 2 1 1 2 2 4 3 3 5 5 5 8 3 7 5 5 5 4 5
3 2 4 9 2 1 3 7 4 1 3 4 2 4 3 5 6 6 5 6 2 4 2 3 4 0 3 6 9 3 2 1 3 5 6 2 8 9 8 8 6 5 4 3 4
2 0 1 4 1 2 2 4 9 6 1 3 3 2 4 2 5 5 6 5 4 5 6 4 4 5 8 2 3 1 6 7 6 6 4 4 13 5 7 8 7 5 4 2 4
4 1 1 2 2 1 3 4 5 3 3 0 6 7 1 2 2 4 5 3 3 3 5 3 3 3 5 5 5 2 5 4 3 3 7 7 10 1 7 3 2 1 0 5 6
2 2 0 1 2 2 1 4 3 3 4 4 4 3 3 2 6 5 2 5 6 2 2 3 2 8 9 6 6 4 3 5 5 4 4 16 18 16 12 16 14 9 11 12 10
2 3 2 4 5 2 1 3 3 1 2 0 2 6 4 4 4 8 8 10 3 3 2 3 6 4 3 4 4 7 6 6 9 9 9 2 12 9 3 7 13 15 16 11 9
3 2 4 4 3 3 4 4 4 3 4 4 5 3 3 5 3 4 5 2 6 2 2 1 3 2 4 5 8 7 11 10 14 13 15 14 29 23 14 13 9 8 7 8 8
2 0 2 5 5 0 5 5 3 2 5 1 1 3 3 5 2 2 10 9 4 5 6 2 5 4 8 3 3 10 15 17 12 7 15 17 28 17 8 6 5 6 6 6 8
Wind_Direction
316 322 326 328 326 324 323 322 315 316 313 312 314 318 318 318 318 217 230 207 169 133 85 309 286 240 196 237 210 140 25 236 222 223 251 246 156 121 180 142 99 72 164 206 136
311 313 316 321 325 323 327 323 321 316 314 315 318 320 320 326 298 243 181 147 129 113 123 209 239 199 214 221 211 141 177 231 228 191 233 190 167 159 153 136 153 144 93 122 134
313 313 309 321 319 322 324 322 316 315 313 315 315 322 324 331 283 242 160 153 138 126 236 289 309 231 197 218 213 195 215 232 257 158 197 158 176 165 141 197 204 188 155 152 152
294 306 304 310 315 320 319 317 314 310 311 311 308 319 321 270 229 144 178 165 151 182 201 192 229 194 214 204 217 220 228 227 173 183 139 191 303 206 175 217 166 163 166 164 168
281 288 305 304 307 313 314 312 307 308 303 307 310 319 337 223 255 179 181 160 163 167 180 197 196 196 207 219 236 219 236 226 150 168 177 134 233 233 259 209 173 167 164 174 174
270 282 294 303 306 309 309 309 305 299 301 302 308 314 235 226 134 152 166 166 222 194 197 202 203 212 253 237 181 33 203 291 191 203 208 202 257 155 244 179 201 172 184 190 187
259 276 289 300 302 306 308 308 304 295 295 300 299 284 257 240 148 158 182 207 167 135 233 254 163 184 340 291 346 86 332 319 231 204 224 144 276 229 227 171 192 197 192 192 202
261 264 273 287 300 304 306 307 299 293 289 284 288 288 255 26 78 161 197 191 223 278 235 302 46 6 234 287 50 71 113 248 274 160 205 137 258 256 238 166 210 209 201 201 210
242 251 263 280 299 303 307 304 295 287 278 266 279 176 263 40 173 182 97 235 155 194 214 345 55 198 77 110 12 246 233 219 304 194 135 183 257 261 16 200 230 216 213 216 220
226 228 239 267 295 310 312 305 278 281 272 241 261 324 247 209 130 118 88 290 156 146 97 142 158 156 152 140 212 198 225 242 220 220 203 215 256 269 278 179 229 229 220 216 214
233 229 230 242 287 313 329 340 14 257 245 201 202 214 140 109 97 233 180 157 154 141 170 213 157 201 207 206 258 250 238 230 261 223 175 236 251 255 256 225 239 236 227 219 217
222 216 206 221 281 310 334 285 91 250 299 239 240 249 162 148 165 189 150 155 170 191 183 152 231 214 186 209 220 244 255 265 286 135 181 277 263 244 241 235 220 232 231 226 223
246 195 183 155 254 310 220 326 328 359 259 279 203 200 181 152 209 205 162 181 188 189 198 181 222 176 204 223 191 215 210 202 237 311 239 295 278 257 259 266 257 239 237 230 211
245 169 159 160 216 36 95 332 324 331 331 262 220 277 134 158 252 116 191 184 217 201 196 230 221 158 146 202 163 241 182 207 249 90 247 109 291 257 256 267 248 241 235 231 210
162 166 163 176 147 149 197 293 315 104 338 303 156 307 45 213 124 357 353 156 191 194 150 227 166 169 180 198 162 224 131 105 94 161 336 118 295 262 241 262 257 294 255 228 209
177 168 162 141 9 124 187 108 355 53 249 261 119 137 116 277 87 106 158 49 203 106 22 171 278 174 176 77 57 149 81 44 47 77 302 186 179 224 213 220 266 355 344 254 219
311 175 142 121 162 141 44 31 61 176 311 302 144 153 253 177 169 152 162 193 168 124 222 128 216 132 144 96 12 112 92 15 354 6 236 218 199 261 281 268 256 353 351 341 336
319 101 73 48 343 122 82 21 167 226 239 184 135 175 185 159 208 194 157 213 254 230 119 173 264 164 182 191 177 181 165 162 199 202 266 310 231 248 232 72 294 44 39 9 16
79 47 60 13 358 344 109 197 213 216 219 137 129 210 271 196 155 160 211 225 206 186 193 163 233 57 53 19 106 191 203 170 90 58 44 228 287 310 272 88 60 41 41 21 354
51 41 32 337 315 354 68 229 237 343 338 84 165 203 232 214 142 179 190 221 229 188 144 176 82 17 315 260 40 151 217 99 356 157 241 269 258 228 163 147 120 88 47 14 329
71 38 322 339 6 63 219 235 275 138 54 328 308 306 234 177 170 171 261 290 195 78 108 129 116 53 51 211 179 152 196 228 136 159 179 240 260 215 190 172 122 146 208 244 293
7 213 1 322 159 235 247 320 341 309 59 269 313 249 259 190 191 208 226 226 120 147 172 206 125 163 206 319 342 183 187 160 135 238 235 165 261 209 156 145 137 184 238 300 293
354 263 106 321 268 218 282 270 217 254 357 263 223 235 318 36 287 269 246 50 115 129 162 226 228 68 342 349 1 201 201 200 137 86 216 140 264 65 96 350 160 110 88 256 261
323 295 28 241 252 258 276 262 297 247 254 226 260 1 357 273 211 272 297 23 346 66 87 168 233 185 214 190 135 179 240 194 143 148 168 230 275 266 323 325 342 331 324 322 307
16 288 165 270 301 231 11 260 265 282 230 253 270 231 219 242 212 233 243 261 332 326 39 151 228 164 232 162 150 179 173 184 193 207 192 208 263 257 208 295 298 306 303 303 301
106 23 351 284 273 282 252 250 233 258 224 198 252 324 252 259 288 332 353 213 218 347 106 287 243 93 272 197 198 238 221 201 208 224 249 259 268 271 276 264 284 277 299 305 299
262 42 198 275 313 189 231 235 326 92 280 324 237 298 267 265 282 287 285 263 259 189 184 206 153 178 250 247 118 283 239 207 216 198 212 227 245 290 281 268 284 301 336 343 339